FW5872 Weather Reports


time (UTC)temp
C
wind
direction
speed
KPH
gust
KPH
rain 1hr
cm
rain 24hr
cm
rain mn
cm
humidity
%
barometer
mb
20260504231532 22 326 1.6 8.0 0.00 0.00 0.00 41 1010.0
20260504230030 22 354 1.6 9.7 0.00 0.00 0.00 40 1010.0
20260504224535 23 278 0.0 8.0 0.00 0.00 0.00 40 1010.1
20260504223032 23 249 4.8 12.9 0.00 0.00 0.00 39 1010.0
20260504221530 23 32 1.6 14.5 0.00 0.00 0.00 39 1009.9
20260504220030 23 92 1.6 8.0 0.00 0.00 0.00 38 1009.9
20260504214539 24 20 1.6 8.0 0.00 0.00 0.00 38 1010.0
20260504213030 24 281 4.8 9.7 0.00 0.00 0.00 37 1009.9
20260504211530 24 69 0.0 8.0 0.00 0.00 0.00 36 1009.8
20260504210030 24 297 1.6 11.3 0.00 0.00 0.00 35 1010.0
20260504204530 24 286 3.2 9.7 0.00 0.00 0.00 36 1009.8
20260504203030 24 283 3.2 8.0 0.00 0.00 0.00 35 1010.1
20260504201529 25 281 0.0 8.0 0.00 0.00 0.00 38 1010.1
20260504200035 24 260 4.8 9.7 0.00 0.00 0.00 35 1010.6
20260504194531 24 288 1.6 8.0 0.00 0.00 0.00 36 1010.6
20260504193030 25 273 1.6 11.3 0.00 0.00 0.00 36 1010.8
20260504191533 25 285 3.2 9.7 0.00 0.00 0.00 36 1011.0
20260504190028 23 285 4.8 9.7 0.00 0.00 0.00 37 1011.4
20260504184536 23 266 3.2 8.0 0.00 0.00 0.00 38 1011.9
20260504183036 23 287 3.2 11.3 0.00 0.00 0.00 36 1012.1
20260504181532 23 294 4.8 11.3 0.00 0.00 0.00 36 1012.2
20260504180030 23 269 4.8 11.3 0.00 0.00 0.00 38 1012.4
20260504174528 22 283 3.2 11.3 0.00 0.00 0.00 39 1012.6
20260504173030 22 258 1.6 9.7 0.00 0.00 0.00 42 1012.9
20260504171530 22 358 1.6 11.3 0.00 0.00 0.00 39 1013.0
20260504081529 8 0 0.0 0.0 0.00 0.00 0.00 70 1015.8
20260504044528 7 0 0.0 0.0 0.00 0.00 0.00 70 1016.0
20260504043030 7 0 0.0 1.6 0.00 0.00 0.00 71 1015.9
20260504041529 7 0 0.0 0.0 0.00 0.00 0.00 69 1016.0
20260504040029 6 0 0.0 0.0 0.00 0.00 0.00 72 1016.0
20260504034528 6 0 0.0 0.0 0.00 0.00 0.00 74 1016.0
20260504033028 7 0 0.0 0.0 0.00 0.00 0.00 74 1015.8
20260504031530 7 0 0.0 0.0 0.00 0.00 0.00 73 1015.7
20260504030034 7 0 0.0 0.0 0.00 0.00 0.00 71 1015.7
20260504024529 7 0 0.0 0.0 0.00 0.00 0.00 68 1015.6
20260504023028 7 0 0.0 0.0 0.00 0.00 0.00 66 1015.5
20260504021535 8 0 0.0 0.0 0.00 0.00 0.00 65 1015.5
20260504020035 8 0 0.0 0.0 0.00 0.00 0.00 66 1015.5
20260504014530 8 0 0.0 0.0 0.00 0.00 0.00 61 1015.3
20260504013035 9 0 0.0 0.0 0.00 0.00 0.00 58 1015.3
20260504011528 10 0 0.0 0.0 0.00 0.00 0.00 55 1015.2
20260504010028 10 0 0.0 0.0 0.00 0.00 0.00 57 1015.2
20260504004539 11 0 0.0 0.0 0.00 0.00 0.00 55 1015.1
20260504003027 12 0 0.0 0.0 0.00 0.00 0.00 54 1015.0
20260504001535 12 0 0.0 0.0 0.00 0.00 0.00 44 1014.9
20260504000028 13 0 0.0 0.0 0.00 0.00 0.00 43 1014.8
20260503234534 14 0 0.0 3.2 0.00 0.00 0.00 42 1014.6
20260503233027 15 0 0.0 1.6 0.00 0.00 0.00 41 1014.5